CW9561 Weather Reports


Display with metric or nautical units.
time (UTC)temp
F
wind
direction
speed
MPH
gust
MPH
rain 1hr
in
rain 24hr
in
rain mn
in
humidity
%
barometer
mb
20260903233021 71 198 0.0 0.0 0.00 0.00 0.00 29 1022.9
20260903232016 71 194 1.0 0.0 0.00 0.00 0.00 30 1023.0
20260903230022 71 5 1.0 0.0 0.00 0.00 0.00 29 1023.2
20260903225039 72 188 1.0 0.0 0.00 0.00 0.00 27 1023.3
20260903224034 72 213 1.0 0.0 0.00 0.00 0.00 29 1023.3
20260903223029 73 253 0.0 0.0 0.00 0.00 0.00 27 1023.3
20260903222033 72 259 1.0 0.0 0.00 0.00 0.00 27 1023.3
20260903221029 73 214 0.0 0.0 0.00 0.00 0.00 28 1023.8
20260903220027 73 126 1.0 0.0 0.00 0.00 0.00 28 1023.6
20260903214027 72 236 1.0 0.0 0.00 0.00 0.00 29 1023.9
20260903213027 72 221 2.0 0.0 0.00 0.00 0.00 30 1024.0
20260903212022 72 307 2.0 0.0 0.00 0.00 0.00 30 1024.4
20260903211019 71 111 1.0 0.0 0.00 0.00 0.00 30 1024.4
20260903210038 71 272 1.0 0.0 0.00 0.00 0.00 32 1024.4
20260903205019 71 266 2.0 0.0 0.00 0.00 0.00 32 1024.6
20260903204017 70 113 3.0 0.0 0.00 0.00 0.00 34 1024.5
20260903203039 71 286 1.0 0.0 0.00 0.00 0.00 33 1024.8
20260903200019 69 117 3.0 0.0 0.00 0.00 0.00 36 1024.6
20260903194017 69 237 2.0 0.0 0.00 0.00 0.00 35 1024.9
20260903193038 69 117 1.0 0.0 0.00 0.00 0.00 37 1024.7
20260903190040 69 326 0.0 0.0 0.00 0.00 0.00 38 1025.1
20260903185038 68 136 3.0 0.0 0.00 0.00 0.00 39 1025.1
20260903182034 68 263 1.0 0.0 0.00 0.00 0.00 41 1025.2
20260903181034 67 214 1.0 0.0 0.00 0.00 0.00 42 1025.2
20260903180029 68 241 1.0 0.0 0.00 0.00 0.00 40 1025.3
20260903175024 67 154 1.0 0.0 0.00 0.00 0.00 42 1025.5
20260903173028 66 134 1.0 0.0 0.00 0.00 0.00 45 1025.4
20260903172026 66 169 1.0 0.0 0.00 0.00 0.00 46 1025.3
20260903170025 65 241 0.0 0.0 0.00 0.00 0.00 47 1025.3
20260903165039 64 159 1.0 0.0 0.00 0.00 0.00 48 1025.3
20260903164024 64 222 0.0 0.0 0.00 0.00 0.00 51 1025.2
20260903163041 63 192 2.0 0.0 0.00 0.00 0.00 52 1025.2
20260903162037 63 153 1.0 0.0 0.00 0.00 0.00 52 1025.1
20260903160031 63 155 1.0 0.0 0.00 0.00 0.00 57 1025.0
20260903155031 61 53 1.0 0.0 0.00 0.00 0.00 59 1024.9
20260903154029 59 206 3.0 0.0 0.00 0.00 0.00 66 1025.0
20260903152027 57 40 0.0 0.0 0.00 0.00 0.00 71 1025.1
20260903151028 56 17 0.0 0.0 0.00 0.00 0.00 74 1024.5
20260903150029 54 17 0.0 0.0 0.00 0.00 0.00 75 1024.6
20260903145026 54 355 0.0 0.0 0.00 0.00 0.00 76 1024.7
20260903144021 54 45 0.0 0.0 0.00 0.00 0.00 75 1025.3
20260903143022 55 281 0.0 0.0 0.00 0.00 0.00 72 1024.5
20260903142023 56 265 0.0 0.0 0.00 0.00 0.00 69 1024.5
20260903141021 56 264 0.0 0.0 0.00 0.00 0.00 71 1024.6
20260903140022 55 264 0.0 0.0 0.00 0.00 0.00 73 1024.6
20260903135041 53 265 0.0 0.0 0.00 0.00 0.00 79 1024.6
20260903134040 50 264 0.0 0.0 0.00 0.00 0.00 85 1024.6
20260903133021 47 264 0.0 0.0 0.00 0.00 0.00 86 1024.6
20260903132041 45 265 0.0 0.0 0.00 0.00 0.00 88 1024.4
20260903131036 44 265 2.0 0.0 0.00 0.00 0.00 88 1024.4
20260903130031 44 264 1.0 0.0 0.00 0.00 0.00 87 1024.4
20260903125034 44 265 0.0 0.0 0.00 0.00 0.00 87 1024.3
20260903124030 45 265 0.0 0.0 0.00 0.00 0.00 87 1024.3
20260903122027 45 264 0.0 0.0 0.00 0.00 0.00 86 1024.5
20260903121022 45 265 0.0 0.0 0.00 0.00 0.00 86 1024.4
20260903120023 46 265 0.0 0.0 0.00 0.00 0.00 85 1024.4
20260903115020 46 265 0.0 0.0 0.00 0.00 0.00 84 1024.3
20260903113037 46 265 0.0 0.0 0.00 0.00 0.00 84 1024.0
20260903111039 47 265 0.0 0.0 0.00 0.00 0.00 84 1024.1
20260903105036 45 265 0.0 0.0 0.00 0.00 0.00 86 1024.0
20260903104035 45 265 0.0 0.0 0.00 0.00 0.00 86 1024.0
20260903103036 45 265 0.0 0.0 0.00 0.00 0.00 86 1024.0
20260903102036 45 265 0.0 0.0 0.00 0.00 0.00 85 1024.1
20260903101035 46 264 0.0 0.0 0.00 0.00 0.00 84 1024.2
20260903100032 47 264 0.0 0.0 0.00 0.00 0.00 82 1024.2
20260903093028 47 265 0.0 0.0 0.00 0.00 0.00 81 1024.3
20260903092043 48 264 0.0 0.0 0.00 0.00 0.00 79 1024.4
20260903091023 50 265 0.0 0.0 0.00 0.00 0.00 76 1024.2
20260903090041 50 264 0.0 0.0 0.00 0.00 0.00 75 1024.4
20260903085037 50 265 0.0 0.0 0.00 0.00 0.00 76 1024.4
20260903084035 50 264 0.0 0.0 0.00 0.00 0.00 76 1024.5
20260903082032 51 265 0.0 0.0 0.00 0.00 0.00 75 1024.2
20260903081030 51 264 0.0 0.0 0.00 0.00 0.00 74 1024.3
20260903080026 50 265 0.0 0.0 0.00 0.00 0.00 75 1024.1
20260903075043 50 265 0.0 0.0 0.00 0.00 0.00 76 1024.1
20260903074043 49 265 0.0 0.0 0.00 0.00 0.00 76 1024.0
20260903072038 50 264 0.0 0.0 0.00 0.00 0.00 74 1024.3
20260903070031 51 265 0.0 0.0 0.00 0.00 0.00 74 1024.5
20260903065031 50 265 0.0 0.0 0.00 0.00 0.00 74 1024.8
20260903064029 50 264 0.0 0.0 0.00 0.00 0.00 75 1024.6
20260903063029 49 265 0.0 0.0 0.00 0.00 0.00 77 1024.5
20260903061024 51 264 0.0 0.0 0.00 0.00 0.00 76 1024.7
20260903060026 52 264 0.0 0.0 0.00 0.00 0.00 73 1024.9
20260903055025 53 265 0.0 0.0 0.00 0.00 0.09 72 1024.9
20260903054024 54 265 0.0 0.0 0.00 0.00 0.09 67 1024.8
20260903052018 55 265 1.0 0.0 0.00 0.00 0.09 67 1024.7
20260903051043 55 285 1.0 0.0 0.00 0.00 0.09 69 1024.6
20260903050021 55 275 0.0 0.0 0.00 0.00 0.09 71 1024.7
20260903044038 54 260 0.0 0.0 0.00 0.00 0.09 75 1024.8
20260903043033 53 90 0.0 0.0 0.00 0.00 0.09 79 1024.9
20260903040032 51 86 0.0 0.0 0.00 0.00 0.09 85 1024.3
20260903035027 52 86 0.0 0.0 0.00 0.00 0.09 85 1024.9
20260903034025 53 86 0.0 0.0 0.00 0.00 0.08 80 1025.0
20260903032028 51 86 0.0 0.0 0.00 0.00 0.08 81 1024.5
20260903031026 52 86 0.0 0.0 0.00 0.00 0.08 80 1024.7
20260903030024 52 86 0.0 0.0 0.00 0.00 0.08 79 1024.6
20260903025026 52 86 0.0 0.0 0.00 0.00 0.08 78 1024.5
20260903024022 52 86 0.0 0.0 0.00 0.00 0.08 78 1024.4
20260903023041 53 86 0.0 0.0 0.00 0.00 0.08 78 1024.5
20260903020037 54 86 0.0 0.0 0.00 0.00 0.08 77 1024.8
20260903015037 54 86 0.0 0.0 0.00 0.00 0.08 78 1024.9
20260903014033 55 86 0.0 0.0 0.00 0.00 0.08 77 1025.0
20260903013028 55 86 0.0 0.0 0.00 0.00 0.08 76 1024.8
20260903012022 55 86 0.0 0.0 0.00 0.00 0.08 75 1024.5
20260903011023 56 86 0.0 0.0 0.00 0.00 0.08 76 1024.2
20260903010020 58 86 0.0 0.0 0.00 0.00 0.08 72 1024.4
20260903005041 59 86 0.0 0.0 0.00 0.00 0.08 66 1024.4
20260903003022 60 86 0.0 0.0 0.00 0.00 0.08 64 1024.3
20260903002024 60 86 0.0 0.0 0.00 0.00 0.08 65 1024.3
20260903001025 60 86 0.0 0.0 0.00 0.00 0.08 68 1024.3
20260903000040 60 86 0.0 0.0 0.00 0.00 0.08 65 1024.9
20260902235039 59 86 0.0 0.0 0.00 0.00 0.08 69 1024.9
20260902234039 58 86 0.0 0.0 0.00 0.00 0.08 74 1024.9